Farmington, MO

6:54 AM CDT on October 20, 2019 (GMT -0500)
Farmington Regional

Weather History for KFAM - July, 2019

Change the Weather History Date:

Wednesday, July 17, 2019

  Actual Average Record
Temperature  
Mean Temperature 80 °F -  
Max Temperature 91 °F 84 °F 95 °F (2012)
Min Temperature 69 °F 65 °F 51 °F (2014)
Cooling Degree Days 15    
Growing Degree Days 30 (Base 50)    
Moisture  
Dew Point 72 °F    
Average Humidity 92    
Maximum Humidity 100    
Minimum Humidity 63    
Precipitation  
Precipitation 0.62 in - - ()
Sea Level Pressure  
Sea Level Pressure 30.02 in    
Wind  
Wind Speed 4 mph (South)    
Max Wind Speed 22 mph    
Max Gust Speed 36 mph    
Visibility 6 miles    
Events Fog , Rain , Thunderstorm    
Averages and records for this station are not official NWS values.
T = Trace of Precipitation, MM = Missing Value Source: NWS Daily Summary

Daily Weather History Graph

Daily Weather History Graph

Search for Another Location

Airport or City:

Astronomy

Jul. 17, 2019 Rise Set
Actual Time 5:53 AM CDT 8:22 PM CDT
Civil Twilight 5:22 AM CDT 8:52 PM CDT
Nautical Twilight 4:45 AM CDT 9:29 PM CDT
Astronomical Twilight 4:03 AM CDT 10:11 PM CDT
Moon 9:11 PM CDT (7/17) 6:25 AM CDT (7/17)
Length of Visible Light 15h 29m
Length of Day
14h 29m
Full, 99% of the Moon is Illuminated
Jul 17
Full
Jul 24
Last Quarter
Jul 31
New
Aug 7
First Quarter
Aug 15
Full

Hourly Weather History & Observations

Time (CDT) Temp. Heat Index Dew Point Humidity Pressure Visibility Wind Dir Wind Speed Gust Speed Precip Events Conditions
12:56 AM 73.9 °F - 73.9 °F 100% 29.97 in 10.0 mi South 3.5 mph - N/A   Mostly Cloudy
1:56 AM 73.9 °F - 73.9 °F 100% 29.97 in 10.0 mi Calm Calm - N/A   Overcast
2:56 AM 73.0 °F - 73.0 °F 100% 29.96 in 10.0 mi South 4.6 mph - N/A   Clear
3:56 AM 72.0 °F - 72.0 °F 100% 29.97 in 10.0 mi South 4.6 mph - N/A   Clear
4:34 AM 71.6 °F - 71.6 °F 100% 29.97 in 1.8 mi Calm Calm - N/A   Clear
4:37 AM 71.6 °F - 71.6 °F 100% 29.97 in 0.8 mi Calm Calm - N/A   Clear
4:46 AM 71.6 °F - 71.6 °F 100% 29.97 in 0.5 mi Calm Calm - N/A Fog Fog
4:56 AM 72.0 °F - 72.0 °F 100% 29.98 in 0.8 mi Calm Calm - N/A   Clear
5:09 AM 71.6 °F - 71.6 °F 100% 29.98 in 1.0 mi South 3.5 mph - N/A   Mist
5:18 AM 69.8 °F - 69.8 °F 100% 29.98 in 1.5 mi Calm Calm - N/A   Partly Cloudy
5:39 AM 71.6 °F - 71.6 °F 100% 29.99 in 0.8 mi Calm Calm - N/A   Mist
5:56 AM 71.1 °F - 71.1 °F 100% 29.99 in 0.5 mi Calm Calm - N/A Fog Fog
6:02 AM 69.8 °F - 69.8 °F 100% 29.99 in 0.2 mi Calm Calm - N/A Fog Fog
6:24 AM 71.6 °F - 71.6 °F 100% 29.99 in 0.5 mi Calm Calm - N/A Fog Fog
6:32 AM 71.6 °F - 71.6 °F 100% 29.99 in 1.0 mi South 3.5 mph - N/A   Mist
6:35 AM 71.6 °F - 71.6 °F 100% 29.99 in 2.0 mi South 3.5 mph - N/A   Partly Cloudy
6:42 AM 71.6 °F - 71.6 °F 100% 29.99 in 8.0 mi Calm Calm - N/A   Clear
6:56 AM 72.0 °F - 72.0 °F 100% 30.00 in 10.0 mi Calm Calm - N/A   Clear
7:56 AM 75.0 °F - 73.9 °F 96% 30.02 in 10.0 mi Calm Calm - N/A   Clear
8:56 AM 80.1 °F 84.5 °F 73.9 °F 81% 30.03 in 10.0 mi Calm Calm - N/A   Clear
10:56 AM 84.9 °F 92.1 °F 73.9 °F 69% 30.03 in 9.0 mi Calm Calm - N/A   Partly Cloudy
11:40 AM 87.8 °F 97.6 °F 75.2 °F 66% 30.03 in 10.0 mi South 5.8 mph - N/A   Mostly Cloudy
11:56 AM 87.1 °F 97.3 °F 75.9 °F 69% 30.03 in 10.0 mi South 4.6 mph - N/A   Mostly Cloudy
12:07 PM 87.8 °F 97.6 °F 75.2 °F 66% 30.03 in 7.0 mi SSW 6.9 mph - N/A   Scattered Clouds
12:56 PM 89.1 °F 99.1 °F 75.0 °F 63% 30.01 in 10.0 mi SW 6.9 mph - N/A   Clear
1:56 PM 90.0 °F 102.5 °F 77.0 °F 65% 30.00 in 10.0 mi Variable 3.5 mph - N/A   Mostly Cloudy
2:56 PM 91.9 °F 108.8 °F 79.0 °F 66% 29.98 in 10.0 mi South 6.9 mph - N/A   Mostly Cloudy
3:56 PM 91.0 °F 107.6 °F 79.0 °F 68% 29.97 in 10.0 mi SSW 8.1 mph - N/A   Mostly Cloudy
4:36 PM 89.6 °F 104.7 °F 78.8 °F 70% 29.95 in 10.0 mi SSW 8.1 mph - N/A Thunderstorm Scattered Clouds
4:56 PM 78.1 °F - 71.1 °F 79% 29.99 in 3.0 mi West 15.0 mph 35.7 mph 0.01 in Rain , Thunderstorm Heavy Thunderstorms and Rain
5:02 PM 75.2 °F - 71.6 °F 89% 30.00 in 1.8 mi NW 21.9 mph 28.8 mph 0.01 in Rain , Thunderstorm Heavy Thunderstorms and Rain
5:06 PM 73.4 °F - 71.6 °F 94% 30.02 in 1.8 mi West 13.8 mph 28.8 mph 0.01 in Rain , Thunderstorm Heavy Thunderstorms and Rain
5:13 PM 73.4 °F - 71.6 °F 94% 30.04 in 1.2 mi WNW 13.8 mph 25.3 mph 0.02 in Rain , Thunderstorm Heavy Thunderstorms and Rain
5:19 PM 71.6 °F - 71.6 °F 100% 30.04 in 1.0 mi West 10.4 mph 25.3 mph 0.03 in Rain , Thunderstorm Heavy Thunderstorms and Rain
5:23 PM 71.6 °F - 71.6 °F 100% 30.02 in 1.5 mi North 4.6 mph 17.3 mph 0.03 in Rain , Thunderstorm Heavy Thunderstorms and Rain
5:28 PM 71.6 °F - 71.6 °F 100% 30.01 in 2.5 mi East 4.6 mph - 0.04 in Rain , Thunderstorm Heavy Thunderstorms and Rain
5:35 PM 71.6 °F - 71.6 °F 100% 30.01 in 6.0 mi East 10.4 mph - 0.04 in Rain , Thunderstorm Heavy Thunderstorms and Rain
5:44 PM 71.6 °F - 71.6 °F 100% 30.01 in 9.0 mi East 10.4 mph - 0.05 in Rain , Thunderstorm Thunderstorms and Rain
5:56 PM 72.0 °F - 71.1 °F 97% 30.02 in 9.0 mi SE 6.9 mph - 0.06 in Rain , Thunderstorm Light Thunderstorms and Rain
6:00 PM 71.6 °F - 71.6 °F 100% 30.02 in 9.0 mi SSW 4.6 mph - 0.01 in Rain , Thunderstorm Light Rain
6:27 PM 71.6 °F - 71.6 °F 100% 30.01 in 6.0 mi Calm Calm - 0.03 in Thunderstorm Overcast
6:56 PM 73.0 °F - 71.1 °F 93% 30.04 in 10.0 mi South 4.6 mph - 0.05 in Rain , Thunderstorm Light Rain
7:25 PM 71.6 °F - 71.6 °F 100% 30.08 in 10.0 mi NNE 13.8 mph 21.9 mph 0.02 in Rain Rain
7:35 PM 73.4 °F - 71.6 °F 94% 30.07 in 5.0 mi NNE 19.6 mph 29.9 mph 0.03 in Rain , Thunderstorm Heavy Rain
7:56 PM 72.0 °F - 71.1 °F 97% 30.12 in 6.0 mi NE 11.5 mph - 0.04 in Rain , Thunderstorm Heavy Thunderstorms and Rain
8:16 PM 71.6 °F - 69.8 °F 94% 30.11 in 4.0 mi NE 10.4 mph - 0.02 in Rain , Thunderstorm Heavy Thunderstorms and Rain
8:35 PM 69.8 °F - 69.8 °F 100% 30.10 in 8.0 mi North 9.2 mph - 0.03 in Rain , Thunderstorm Heavy Thunderstorms and Rain
8:38 PM 69.8 °F - 69.8 °F 100% 30.10 in 7.0 mi North 6.9 mph - 0.04 in Rain , Thunderstorm Heavy Rain
8:56 PM 70.0 °F - 69.1 °F 97% 30.10 in 7.0 mi NNE 5.8 mph - 0.05 in Rain , Thunderstorm Heavy Thunderstorms and Rain
9:24 PM 71.6 °F - 69.8 °F 94% 30.08 in 10.0 mi North 9.2 mph - 0.02 in Rain Rain
9:49 PM 71.6 °F - 69.8 °F 94% 30.08 in 8.0 mi Variable 3.5 mph - 0.05 in Rain , Thunderstorm Heavy Rain
9:56 PM 71.1 °F - 70.0 °F 96% 30.07 in 5.0 mi South 11.5 mph - 0.05 in Rain , Thunderstorm Heavy Rain
10:00 PM 71.6 °F - 69.8 °F 94% 30.06 in 8.0 mi SSE 10.4 mph - 0.01 in Rain , Thunderstorm Thunderstorms and Rain
10:04 PM 71.6 °F - 69.8 °F 94% 30.05 in 10.0 mi ESE 8.1 mph - 0.01 in Rain , Thunderstorm Thunderstorms and Rain
10:21 PM 69.8 °F - 69.8 °F 100% 30.03 in 10.0 mi SE 5.8 mph - 0.03 in Rain Light Rain
10:56 PM 71.1 °F - 70.0 °F 96% 29.99 in 10.0 mi South 6.9 mph - 0.07 in Rain Light Rain
11:56 PM 71.1 °F - 70.0 °F 96% 29.96 in 10.0 mi South 9.2 mph - 0.29 in Rain Light Rain